EW7837 Weather Reports


time (UTC)temp
C
wind
direction
speed
KPH
gust
KPH
rain 1hr
cm
rain 24hr
cm
rain mn
cm
humidity
%
barometer
mb
20260502220034 23 265 0.0 0.0 0.00 0.00 0.00 68 1009.0
20260502214542 23 272 0.0 0.0 0.00 0.00 0.00 68 1009.4
20260502213032 23 265 0.0 0.0 0.00 0.00 0.00 68 1009.5
20260502211530 22 236 0.0 0.0 0.00 0.00 0.00 70 1009.6
20260502210030 23 281 0.0 0.0 0.00 0.00 0.00 69 1009.0
20260502204523 23 279 0.0 0.0 0.00 0.00 0.00 70 1009.4
20260502203022 23 273 0.0 0.0 0.00 0.00 0.00 70 1009.2
20260502201524 22 254 1.6 0.0 0.00 0.00 0.00 72 1009.1
20260502200019 22 263 1.6 0.0 0.00 0.00 0.00 71 1009.6
20260502194516 22 238 0.0 0.0 0.00 0.00 0.00 72 1009.8
20260502193015 22 238 0.0 0.0 0.00 0.00 0.00 72 1010.1
20260502191511 22 238 0.0 0.0 0.00 0.00 0.00 75 1010.2
20260502190013 21 238 0.0 0.0 0.00 0.00 0.00 77 1010.6
20260502184504 20 238 0.0 0.0 0.00 0.00 0.00 78 1010.6
20260502183002 20 238 0.0 0.0 0.00 0.00 0.00 78 1011.0
20260502181558 20 238 0.0 0.0 0.00 0.00 0.00 77 1011.1
20260502163114 18 238 0.0 0.0 0.00 0.00 0.00 82 1011.6
20260502161555 18 238 0.0 0.0 0.00 0.00 0.00 82 1011.7
20260502151547 17 238 0.0 0.0 0.00 0.00 0.00 84 1011.5
20260502123023 17 238 0.0 0.0 0.00 0.00 0.00 83 1010.5
20260502121521 17 238 0.0 0.0 0.00 0.00 0.00 83 1010.5
20260502114529 17 238 0.0 0.0 0.00 0.00 0.00 83 1010.1
20260502113022 17 238 0.0 0.0 0.00 0.00 0.00 83 1010.2
20260502111517 17 238 0.0 0.0 0.00 0.00 0.00 83 1010.1
20260502110019 17 238 0.0 0.0 0.00 0.00 0.00 82 1010.1
20260502104520 17 238 0.0 0.0 0.00 0.00 0.00 83 1010.1
20260502103016 17 238 0.0 0.0 0.00 0.00 0.00 82 1010.1
20260502101513 17 238 0.0 0.0 0.00 0.00 0.00 82 1010.1
20260502091510 17 238 0.0 0.0 0.00 0.00 0.00 81 1010.1
20260502071502 18 238 0.0 0.0 0.00 0.00 0.00 81 1010.8
20260502070002 18 238 0.0 0.0 0.00 0.00 0.00 81 1010.7
20260502064500 18 238 0.0 0.0 0.00 0.00 0.00 81 1010.6
20260502063131 18 238 0.0 0.0 0.00 0.00 0.00 82 1010.6
20260502061558 18 238 0.0 0.0 0.00 0.00 0.00 82 1010.6
20260502060057 18 238 0.0 0.0 0.00 0.00 0.00 83 1010.8
20260502054557 17 238 0.0 0.0 0.00 0.00 0.00 83 1010.8
20260502053100 17 238 0.0 0.0 0.00 0.00 0.00 83 1010.7
20260502051535 17 238 0.0 0.0 0.00 0.00 0.00 82 1010.8
20260502050034 17 238 0.0 0.0 0.00 0.00 0.00 81 1010.7
20260502044521 17 238 0.0 0.0 0.00 0.00 0.00 81 1010.6
20260502043020 17 238 0.0 0.0 0.00 0.00 0.00 81 1010.6
20260502041526 17 238 0.0 0.0 0.00 0.00 0.00 81 1010.6
20260502040022 17 238 0.0 0.0 0.00 0.00 0.00 81 1010.5
20260502034517 17 238 0.0 0.0 0.00 0.00 0.00 82 1010.3
20260502033025 17 238 0.0 0.0 0.00 0.00 0.00 81 1010.1
20260502031515 17 238 0.0 0.0 0.00 0.00 0.00 81 1010.1
20260502030014 17 238 0.0 0.0 0.00 0.00 0.00 81 1010.1
20260502024514 17 238 0.0 0.0 0.00 0.00 0.00 80 1010.0
20260502023009 18 238 0.0 0.0 0.00 0.00 0.00 78 1010.0
20260502021508 18 238 0.0 0.0 0.00 0.00 0.00 77 1009.6
20260502020008 18 238 0.0 0.0 0.00 0.00 0.00 76 1009.6
20260502014554 19 238 0.0 0.0 0.00 0.00 0.00 75 1009.6
20260502013031 20 238 0.0 0.0 0.00 0.00 0.00 74 1009.5
20260502011529 20 252 0.0 0.0 0.00 0.00 0.00 74 1009.3
20260502010031 20 254 0.0 0.0 0.00 0.00 0.00 72 1009.1
20260502004531 20 235 0.0 0.0 0.00 0.00 0.00 72 1009.1
20260502003026 21 234 0.0 0.0 0.00 0.00 0.00 71 1009.0
20260502001555 21 236 0.0 0.0 0.00 0.00 0.00 71 1009.0
20260502000055 21 242 0.0 0.0 0.00 0.00 0.00 71 1009.0
20260501234552 21 245 0.0 0.0 0.00 0.00 0.00 70 1009.0
20260501233101 21 245 0.0 0.0 0.00 0.00 0.00 69 1009.0
20260501231550 21 265 0.0 0.0 0.00 0.00 0.00 70 1009.1
20260501230050 21 234 0.0 0.0 0.00 0.00 0.00 69 1009.2
20260501224547 21 248 0.0 0.0 0.00 0.00 0.00 69 1009.5
20260501223047 21 261 0.0 0.0 0.00 0.00 0.00 69 1009.7
20260501221545 21 249 1.6 0.0 0.00 0.00 0.00 68 1009.7